Regional Weather Roundup
Issued by NWS

Home | Current Version | Previous Version | Graphics & Text | Print | Product List | Glossary On
Versions: 1 2 3 4 5 6 7 8 9 10 11 12 13 14 15 16 17 18 19 20 21 22 23 24 25 26 27 28 29 30 31 32 33 34 35 36 37 38 39 40 41 42 43 44 45 46 47 48 49 50
581
ASUS43 KTOP 150959
RWRKS

WEATHER ROUNDUP FOR KANSAS
NATIONAL WEATHER SERVICE GOODLAND KS
400 AM CST FRI DEC 15 2017

NOTE:  "FAIR" INDICATES FEW OR NO CLOUDS BELOW 12,000 FEET WITH NO
SIGNIFICANT WEATHER AND/OR OBSTRUCTIONS TO VISIBILITY.

KSZ001>006-013>018-027>032-041>047-151100-
NORTHWEST KANSAS

CITY           SKY/WX    TMP DP  RH WIND       PRES   REMARKS
GOODLAND       CLOUDY    18  14  84 W10       30.15F WCI   6
HAYS           CLEAR     23  20  88 W8        30.22F
HILL CITY      CLEAR     22  18  85 W7        30.20F
RUSSELL        CLEAR     23  22  96 W7        30.20F
$$

KSZ061>065-074>080-084>089-151100-
SOUTHWEST KANSAS

CITY           SKY/WX    TMP DP  RH WIND       PRES   REMARKS
DODGE CITY     CLEAR     21  16  81 W8        30.24S
GARDEN CITY    CLOUDY    15  12  88 W9        30.22F
GREAT BEND     CLEAR     20  18  92 W9        30.23F
LIBERAL        CLEAR     19  16  88 W9        30.27S
$$

KSZ066>073-081>083-090>101-151100-
SOUTHEAST KANSAS

CITY           SKY/WX    TMP DP  RH WIND       PRES   REMARKS
CHANUTE        MOCLDY    36  31  82 NW8       30.18R
COFFEYVILLE    CLOUDY    40  32  73 NW12      30.19R WCI  33
HUTCHINSON     CLEAR     27  25  92 NW8       30.21S
MEDICINE LODGE   N/A     26  23  88 NW3       30.25S
NEWTON         CLOUDY    35  29  78 NW10      30.21R WCI  27
PARSONS        MOCLDY    36  32  85 NW7       30.19R
WICHITA INTL   PTCLDY    33  29  85 NW9       30.22R
WICHITA JABRA  MOCLDY    33  30  88 NW12      30.21R WCI  24
WICHITA MCCONL PTCLDY    33  28  83 NW9       30.21R
WINFIELD       CLEAR     28  27  96 W9        30.23R
$$

KSZ007>012-019>026-033>040-048>060-102>105-151100-
NORTHEAST KANSAS

CITY           SKY/WX    TMP DP  RH WIND       PRES   REMARKS
CONCORDIA      CLEAR     26  24  92 W7        30.18F
EMPORIA        CLOUDY    35  31  85 NW9       30.17R
LAWRENCE       CLOUDY    37  32  82 W9        30.16R
MANHATTAN      CLEAR     31  27  85 W6        30.19S
OLATHE IND     CLOUDY    35  31  85 W8        30.15R
OLATHE EXE     CLOUDY    35  31  85 NW8       30.13S
SALINA         PTCLDY    30  27  88 W9        30.22R
TOPEKA BILLARD CLOUDY    38  34  85 W8        30.16R
TOPEKA FORBES  CLOUDY    38  33  82 NW14      30.16R WCI  30
$$




USA.gov is the U.S. government's official web portal to all federal, state and local government web resources and services.